When you browse on this site, cookies collect data to enhance your experience and personalize the content and advertising you see.
Visit our Privacy Policy to learn more. By continuing to use the site, you agree to this use of cookies and data.
  • In Österreich
  • Länderverzeichnis
  • Für 7 Tage
  • Wassertemperatur
  • Satellitenkarten
  • Wetterkarte
  • News
  • Widgets
  • user-avatar
    Anmelden

    Stündliche Wetter Lagowiec

    Heute, 21 Februar, Donnerstag

    Zeit Temperatur Niederschläge Wind Luftdruck Luftfeuchtigkeit
    00:00 +6°C° 0 mm 2 m/S 758 mmHg 87%
    01:00 +5°C° 0 mm 2 m/S 758 mmHg 90%
    02:00 +5°C° 0 mm 2 m/S 758 mmHg 89%
    03:00 +4°C° 0 mm 3 m/S 757 mmHg 88%
    04:00 +4°C° 0 mm 3 m/S 757 mmHg 87%
    05:00 +4°C° 0 mm 3 m/S 757 mmHg 87%
    06:00 +4°C° 0 mm 3 m/S 757 mmHg 86%
    07:00 +4°C° 0 mm 4 m/S 757 mmHg 86%
    08:00 +4°C° 0.1 mm 4 m/S 757 mmHg 84%
    09:00 +5°C° 0.1 mm 4 m/S 757 mmHg 82%
    10:00 +5°C° 0.1 mm 4 m/S 757 mmHg 80%
    11:00 +6°C° 0.3 mm 5 m/S 757 mmHg 80%
    12:00 +6°C° 0.3 mm 5 m/S 757 mmHg 80%
    13:00 +5°C° 0.3 mm 6 m/S 756 mmHg 81%
    14:00 +6°C° 0.2 mm 5 m/S 756 mmHg 80%
    15:00 +7°C° 0.2 mm 5 m/S 756 mmHg 80%
    16:00 +7°C° 0.2 mm 5 m/S 756 mmHg 79%
    17:00 +7°C° 0.3 mm 5 m/S 756 mmHg 82%
    18:00 +7°C° 0.3 mm 5 m/S 756 mmHg 85%
    19:00 +7°C° 0.3 mm 5 m/S 756 mmHg 88%
    20:00 +7°C° 0.4 mm 5 m/S 756 mmHg 89%
    21:00 +7°C° 0.4 mm 4 m/S 756 mmHg 90%
    22:00 +7°C° 0.4 mm 4 m/S 756 mmHg 91%
    23:00 +7°C° 0.2 mm 4 m/S 756 mmHg 91%

    Morgen, 22 Februar, Freitag

    Zeit Temperatur Niederschläge Wind Luftdruck Luftfeuchtigkeit
    00:00 +7°C° 0.2 mm 5 m/S 757 mmHg 90%
    01:00 +6°C° 0.2 mm 5 m/S 757 mmHg 90%
    02:00 +5°C° 0.3 mm 5 m/S 758 mmHg 87%
    03:00 +4°C° 0.3 mm 6 m/S 759 mmHg 85%
    04:00 +3°C° 0.3 mm 6 m/S 759 mmHg 82%
    05:00 +1°C° 0 mm 6 m/S 761 mmHg 80%
    06:00 -1°C° 0 mm 6 m/S 762 mmHg 77%
    07:00 -2°C° 0 mm 6 m/S 763 mmHg 75%
    08:00 -1°C° 0 mm 5 m/S 765 mmHg 68%
    09:00 -1°C° 0 mm 5 m/S 766 mmHg 62%
    10:00 -1°C° 0 mm 4 m/S 767 mmHg 55%
    11:00 0°C° 0 mm 4 m/S 768 mmHg 51%
    12:00 0°C° 0 mm 4 m/S 768 mmHg 48%
    13:00 +1°C° 0 mm 4 m/S 769 mmHg 44%
    14:00 0°C° 0 mm 4 m/S 769 mmHg 43%
    15:00 +1°C° 0 mm 3 m/S 769 mmHg 43%
    16:00 +1°C° 0 mm 3 m/S 770 mmHg 43%
    17:00 0°C° 0 mm 3 m/S 770 mmHg 46%
    18:00 -1°C° 0 mm 2 m/S 771 mmHg 50%
    19:00 -1°C° 0 mm 2 m/S 771 mmHg 54%
    20:00 -2°C° 0 mm 2 m/S 771 mmHg 54%
    21:00 -2°C° 0 mm 2 m/S 772 mmHg 54%
    22:00 -2°C° 0 mm 2 m/S 772 mmHg 54%
    23:00 -3°C° 0 mm 2 m/S 772 mmHg 53%

    übermorgen, 23 Februar, Samstag

    Zeit Temperatur Niederschläge Wind Luftdruck Luftfeuchtigkeit
    00:00 -3°C° 0 mm 2 m/S 773 mmHg 52%
    01:00 -3°C° 0 mm 2 m/S 773 mmHg 51%
    02:00 -3°C° 0 mm 2 m/S 772 mmHg 51%
    03:00 -3°C° 0 mm 2 m/S 772 mmHg 50%
    04:00 -3°C° 0 mm 2 m/S 772 mmHg 50%
    05:00 -1°C° 0 mm 1 m/S 772 mmHg 50%
    06:00 -1°C° 0 mm 1 m/S 772 mmHg 51%
    07:00 -1°C° 0 mm 1 m/S 772 mmHg 51%
    08:00 0°C° 0 mm 1 m/S 773 mmHg 46%
    09:00 -2°C° 0 mm 2 m/S 773 mmHg 41%
    10:00 -1°C° 0 mm 2 m/S 773 mmHg 36%
    11:00 +1°C° 0 mm 2 m/S 773 mmHg 32%
    12:00 +2°C° 0 mm 2 m/S 773 mmHg 29%
    13:00 +3°C° 0 mm 2 m/S 772 mmHg 26%
    14:00 +3°C° 0 mm 2 m/S 772 mmHg 26%
    15:00 +4°C° 0 mm 1 m/S 772 mmHg 27%
    16:00 +4°C° 0 mm 1 m/S 771 mmHg 28%
    17:00 +3°C° 0 mm 1 m/S 771 mmHg 30%
    18:00 +2°C° 0 mm 1 m/S 771 mmHg 33%
    19:00 +1°C° 0 mm 1 m/S 771 mmHg 35%
    20:00 +1°C° 0 mm 1 m/S 771 mmHg 36%
    21:00 +1°C° 0 mm 1 m/S 771 mmHg 36%
    22:00 +1°C° 0 mm 1 m/S 771 mmHg 37%
    23:00 +1°C° 0 mm 1 m/S 770 mmHg 37%

    24 Februar, Sonntag

    Zeit Temperatur Niederschläge Wind Luftdruck Luftfeuchtigkeit
    00:00 +1°C° 0 mm 1 m/S 770 mmHg 37%
    01:00 +1°C° 0 mm 1 m/S 770 mmHg 37%
    02:00 +1°C° 0 mm 1 m/S 770 mmHg 37%
    03:00 +1°C° 0 mm 1 m/S 770 mmHg 37%
    04:00 0°C° 0 mm 1 m/S 769 mmHg 37%
    05:00 0°C° 0 mm 1 m/S 769 mmHg 37%
    06:00 +1°C° 0 mm 1 m/S 769 mmHg 37%
    07:00 +1°C° 0 mm 1 m/S 769 mmHg 37%
    08:00 +1°C° 0 mm 2 m/S 769 mmHg 35%
    09:00 +2°C° 0 mm 2 m/S 769 mmHg 34%
    10:00 +2°C° 0 mm 3 m/S 769 mmHg 32%
    11:00 +4°C° 0 mm 3 m/S 769 mmHg 34%
    12:00 +5°C° 0 mm 3 m/S 768 mmHg 35%
    13:00 +7°C° 0 mm 3 m/S 768 mmHg 36%
    14:00 +7°C° 0 mm 3 m/S 768 mmHg 41%
    15:00 +7°C° 0 mm 2 m/S 768 mmHg 47%
    16:00 +7°C° 0 mm 2 m/S 768 mmHg 52%
    17:00 +6°C° 0 mm 2 m/S 768 mmHg 57%
    18:00 +4°C° 0 mm 2 m/S 768 mmHg 63%
    19:00 +3°C° 0 mm 2 m/S 768 mmHg 69%
    20:00 +3°C° 0 mm 2 m/S 768 mmHg 71%
    21:00 +3°C° 0 mm 2 m/S 768 mmHg 74%
    22:00 +2°C° 0 mm 2 m/S 768 mmHg 76%
    23:00 +2°C° 0 mm 2 m/S 768 mmHg 78%

    25 Februar, Montag

    Zeit Temperatur Niederschläge Wind Luftdruck Luftfeuchtigkeit
    00:00 +2°C° 0 mm 2 m/S 768 mmHg 79%
    01:00 +1°C° 0 mm 2 m/S 768 mmHg 80%
    02:00 +1°C° 0 mm 2 m/S 768 mmHg 82%
    03:00 +1°C° 0 mm 2 m/S 768 mmHg 83%
    04:00 +1°C° 0 mm 2 m/S 768 mmHg 85%
    05:00 +1°C° 0 mm 2 m/S 768 mmHg 87%
    06:00 -1°C° 0 mm 2 m/S 768 mmHg 90%
    07:00 -1°C° 0 mm 2 m/S 768 mmHg 93%
    08:00 +2°C° 0 mm 2 m/S 768 mmHg 88%
    09:00 +3°C° 0 mm 2 m/S 769 mmHg 84%
    10:00 +5°C° 0 mm 2 m/S 769 mmHg 80%
    11:00 +6°C° 0 mm 2 m/S 769 mmHg 75%
    12:00 +8°C° 0 mm 2 m/S 769 mmHg 69%
    13:00 +10°C° 0 mm 1 m/S 769 mmHg 64%
    14:00 +10°C° 0 mm 1 m/S 769 mmHg 64%
    15:00 +9°C° 0 mm 0 m/S 768 mmHg 63%
    16:00 +9°C° 0 mm 0 m/S 768 mmHg 63%
    17:00 +8°C° 0 mm 0 m/S 768 mmHg 68%
    18:00 +7°C° 0 mm 0 m/S 768 mmHg 73%
    19:00 +6°C° 0 mm 0 m/S 768 mmHg 78%
    20:00 +5°C° 0 mm 0 m/S 768 mmHg 80%
    21:00 +5°C° 0 mm 0 m/S 768 mmHg 82%
    22:00 +4°C° 0 mm 0 m/S 768 mmHg 84%
    23:00 +5°C° 0 mm 1 m/S 768 mmHg 85%

    26 Februar, Dienstag

    Zeit Temperatur Niederschläge Wind Luftdruck Luftfeuchtigkeit
    00:00 +5°C° 0 mm 1 m/S 767 mmHg 87%
    01:00 +4°C° 0 mm 2 m/S 767 mmHg 88%
    02:00 +3°C° 0 mm 2 m/S 767 mmHg 90%
    03:00 +3°C° 0 mm 2 m/S 766 mmHg 91%
    04:00 +3°C° 0 mm 2 m/S 766 mmHg 92%
    05:00 +3°C° 0 mm 2 m/S 765 mmHg 93%
    06:00 +3°C° 0 mm 2 m/S 765 mmHg 94%
    07:00 +1°C° 0 mm 3 m/S 765 mmHg 94%
    08:00 +3°C° 0 mm 3 m/S 764 mmHg 86%
    09:00 +4°C° 0 mm 3 m/S 764 mmHg 78%
    10:00 +6°C° 0 mm 4 m/S 764 mmHg 70%
    11:00 +7°C° 0 mm 4 m/S 764 mmHg 64%
    12:00 +9°C° 0 mm 5 m/S 763 mmHg 59%
    13:00 +10°C° 0 mm 5 m/S 763 mmHg 53%
    14:00 +10°C° 0 mm 5 m/S 763 mmHg 54%
    15:00 +10°C° 0 mm 5 m/S 762 mmHg 55%
    16:00 +10°C° 0 mm 5 m/S 762 mmHg 56%
    17:00 +10°C° 0 mm 4 m/S 762 mmHg 62%
    18:00 +8°C° 0 mm 4 m/S 762 mmHg 67%
    19:00 +8°C° 0 mm 3 m/S 762 mmHg 73%
    20:00 +7°C° 0 mm 3 m/S 762 mmHg 78%
    21:00 +6°C° 0 mm 2 m/S 762 mmHg 83%
    22:00 +5°C° 0 mm 2 m/S 762 mmHg 88%
    23:00 +5°C° 0 mm 2 m/S 762 mmHg 90%
    Mehr zeigen